Saturday, November 18, 2017, 9:53 PM EST
Back to Local

KCON, Concord, Concord Municipal Airport

Location: Concord, NH, United States Lat: 43.195
Local Time: 9:53 PM EST ( 2:53 GMT) Lon: -71.501
Time Zone: US/Eastern Elev: 344 ft

Show me the last for .
Show Decoded

2017-11-18 21:14 METAR KCON 190214Z AUTO 00000KT 5SM -RA BR BKN006 OVC012 02/01 A2957 RMK AO2
                 P0002 T00220006 =
2017-11-18 20:51 METAR KCON 190151Z AUTO 01003KT 6SM -RA BR FEW006 BKN014 OVC030 02/01 A2959 RMK
                 AO2 SLP023 P0002 T00220011 =
2017-11-18 20:46 METAR KCON 190146Z AUTO 00000KT 6SM -RA BR SCT010 BKN022 OVC031 02/01 A2959 RMK
                 AO2 P0002 =
2017-11-18 20:08 METAR KCON 190108Z AUTO 00000KT 9SM -RA BKN012 OVC019 02/01 A2962 RMK AO2 P0000
                 T00220006 =
2017-11-18 19:51 METAR KCON 190051Z AUTO 09007KT 5SM -RA BR FEW012 BKN022 OVC035 02/00 A2962 RMK
                 AO2 RAB15 SLP035 P0001 I1000 T00220000 =
2017-11-18 18:51 METAR KCON 182351Z AUTO 08003KT 10SM BKN026 OVC039 04/M02 A2966 RMK AO2 SLP048
                 60001 T00391022 10050 20033 56020 =
2017-11-18 18:36 METAR KCON 182336Z AUTO 12003KT 10SM BKN026 BKN031 OVC041 04/M02 A2967 =
2017-11-18 17:51 METAR KCON 182251Z AUTO 07003KT 10SM FEW042 OVC050 03/M03 A2967 RMK AO2 SLP051
                 T00331033 =
2017-11-18 16:51 METAR KCON 182151Z AUTO 10004KT 10SM OVC060 03/M04 A2969 RMK AO2 RAE21 SLP059
                 P0001 T00331044 =
2017-11-18 15:51 METAR KCON 182051Z AUTO 14004KT 10SM -RA SCT075 OVC100 04/M07 A2972 RMK AO2
                 RAB50 SLP068 P0000 60000 T00441067 56022 =
2017-11-18 14:51 METAR KCON 181951Z AUTO 14005KT 10SM OVC110 05/M08 A2973 RMK AO2 SLP071
                 T00501083 =
2017-11-18 13:51 METAR KCON 181851Z AUTO 16003KT 10SM FEW095 04/M09 A2977 RMK AO2 SLP085
                 T00441089 =
2017-11-18 12:51 METAR KCON 181751Z AUTO 16006KT 10SM SCT120 04/M10 A2979 RMK AO2 SLP091
                 T00441100 10044 21067 58040 =
2017-11-18 11:51 METAR KCON 181651Z AUTO 00000KT 10SM CLR 03/M09 A2983 RMK AO2 SLP104 T00331094 =
2017-11-18 10:51 METAR KCON 181551Z AUTO 00000KT 10SM CLR 02/M09 A2987 RMK AO2 SLP119 T00221094 =
2017-11-18 09:51 METAR KCON 181451Z AUTO 00000KT 10SM CLR 01/M09 A2991 RMK AO2 SLP132 T00111094
                 58016 =
2017-11-18 08:51 METAR KCON 181351Z AUTO 00000KT 10SM CLR M01/M08 A2993 RMK AO2 SLP140 T10061083
                 =
2017-11-18 07:51 METAR KCON 181251Z AUTO 00000KT 10SM CLR M04/M08 A2996 RMK AO2 SLP150 T10391078
                 =
2017-11-18 06:51 METAR KCON 181151Z AUTO 00000KT 10SM CLR M07/M09 A2995 RMK AO2 SLP149 T10671094
                 11028 21067 51002 =
2017-11-18 05:51 METAR KCON 181051Z AUTO 20003KT 10SM CLR M06/M09 A2995 RMK AO2 SLP148 T10611089
                 =
2017-11-18 04:51 METAR KCON 180951Z AUTO 00000KT 10SM CLR M06/M09 A2997 RMK AO2 SLP152 T10561089
                 =
2017-11-18 03:51 METAR KCON 180851Z AUTO 33004KT 10SM CLR M04/M10 A2995 RMK AO2 SLP145 T10391100
                 57016 =
2017-11-18 02:51 METAR KCON 180751Z AUTO 28005KT 10SM CLR M04/M10 A2997 RMK AO2 SLP153 T10441100
                 =
2017-11-18 01:51 METAR KCON 180651Z AUTO 31007KT 10SM CLR M03/M10 A2997 RMK AO2 SLP154 T10331100
                 =
2017-11-18 00:51 METAR KCON 180551Z AUTO 32007KT 10SM CLR M03/M10 A2999 RMK AO2 SLP161 T10281100
                 10000 21039 52004 =
2017-11-17 23:51 METAR KCON 180451Z AUTO 30008KT 10SM CLR M03/M10 A2999 RMK AO2 SLP161 T10281100
                 400391028 =
2017-11-17 22:51 METAR KCON 180351Z AUTO 31009KT 10SM CLR M02/M11 A2998 RMK AO2 SLP158 T10171106
                 =

Support USWX by starting your Amazon purchase here.